Time,TemperatureF,DewpointF,PressureIn,WindDirection,WindDirectionDegrees,WindSpeedMPH,WindSpeedGustMPH,Humidity,HourlyPrecipIn,Conditions,Clouds,dailyrainin,SoftwareType,DateUTC
2013-03-11 00:01:00,34.3,31.0,28.38,NW,312,0.0,1.0,88,0.00,,,0.00,weatherlink.com 1.10,2013-03-11 04:01:00,
2013-03-11 00:17:00,34.8,31.0,28.37,NNE,12,0.0,2.0,87,0.00,,,0.00,weatherlink.com 1.10,2013-03-11 04:17:00,
2013-03-11 00:31:00,34.8,31.0,28.36,SSW,206,0.0,1.0,86,0.00,,,0.00,weatherlink.com 1.10,2013-03-11 04:31:00,
2013-03-11 00:46:00,34.2,31.0,28.37,SSW,207,0.0,0.0,87,0.00,,,0.00,weatherlink.com 1.10,2013-03-11 04:46:00,
2013-03-11 01:01:00,34.3,31.0,28.36,North,357,0.0,2.0,88,0.00,,,0.00,weatherlink.com 1.10,2013-03-11 05:01:00,
2013-03-11 01:16:00,34.0,31.0,28.36,North,357,0.0,0.0,87,0.00,,,0.00,weatherlink.com 1.10,2013-03-11 05:16:00,
2013-03-11 01:32:00,33.5,31.0,28.36,North,360,0.0,1.0,90,0.00,,,0.00,weatherlink.com 1.10,2013-03-11 05:32:00,
2013-03-11 01:46:00,34.7,31.0,28.35,North,4,0.0,1.0,87,0.00,,,0.00,weatherlink.com 1.10,2013-03-11 05:46:00,
2013-03-11 02:02:00,35.3,32.0,28.34,North,4,0.0,1.0,87,0.00,,,0.00,weatherlink.com 1.10,2013-03-11 06:02:00,
2013-03-11 02:17:00,35.7,32.0,28.34,NNE,19,0.0,1.0,86,0.00,,,0.00,weatherlink.com 1.10,2013-03-11 06:17:00,
2013-03-11 02:32:00,35.9,32.0,28.34,North,5,0.0,1.0,85,0.00,,,0.00,weatherlink.com 1.10,2013-03-11 06:32:00,
2013-03-11 02:47:00,35.9,32.0,28.34,North,4,0.0,1.0,85,0.00,,,0.00,weatherlink.com 1.10,2013-03-11 06:47:00,
2013-03-11 03:02:00,35.9,32.0,28.34,North,355,0.0,1.0,86,0.00,,,0.00,weatherlink.com 1.10,2013-03-11 07:02:00,
2013-03-11 03:17:00,36.3,33.0,28.32,North,356,0.0,1.0,86,0.00,,,0.00,weatherlink.com 1.10,2013-03-11 07:17:00,
2013-03-11 03:32:00,36.4,32.0,28.32,North,355,0.0,1.0,85,0.00,,,0.00,weatherlink.com 1.10,2013-03-11 07:32:00,
2013-03-11 03:47:00,37.0,33.0,28.31,North,354,0.0,1.0,84,0.00,,,0.00,weatherlink.com 1.10,2013-03-11 07:47:00,
2013-03-11 04:02:00,38.3,32.0,28.30,SSW,193,3.0,3.0,77,0.00,,,0.00,weatherlink.com 1.10,2013-03-11 08:02:00,
2013-03-11 04:17:00,43.2,31.0,28.29,SSW,206,3.0,5.0,62,0.00,,,0.00,weatherlink.com 1.10,2013-03-11 08:17:00,
2013-03-11 04:32:00,45.0,31.0,28.29,SSW,201,3.0,6.0,58,0.00,,,0.00,weatherlink.com 1.10,2013-03-11 08:32:00,
2013-03-11 04:47:00,46.0,30.0,28.29,SSW,205,1.0,8.0,55,0.00,,,0.00,weatherlink.com 1.10,2013-03-11 08:47:00,
2013-03-11 05:02:00,46.7,30.0,28.28,South,169,5.0,8.0,52,0.00,,,0.00,weatherlink.com 1.10,2013-03-11 09:02:00,
2013-03-11 05:17:00,47.3,29.0,28.28,South,188,5.0,10.0,50,0.00,,,0.00,weatherlink.com 1.10,2013-03-11 09:17:00,
2013-03-11 05:32:00,47.0,29.0,28.28,SW,219,2.0,7.0,50,0.00,,,0.00,weatherlink.com 1.10,2013-03-11 09:32:00,
2013-03-11 05:47:00,46.9,29.0,28.28,SSW,197,2.0,11.0,50,0.00,,,0.00,weatherlink.com 1.10,2013-03-11 09:47:00,
2013-03-11 06:02:00,46.9,28.0,28.27,SSE,153,2.0,11.0,49,0.00,,,0.00,weatherlink.com 1.10,2013-03-11 10:02:00,
2013-03-11 06:17:00,46.6,29.0,28.28,SSW,200,4.0,8.0,50,0.00,,,0.00,weatherlink.com 1.10,2013-03-11 10:17:00,
2013-03-11 06:32:00,46.7,29.0,28.28,SW,216,0.0,10.0,50,0.00,,,0.00,weatherlink.com 1.10,2013-03-11 10:32:00,
2013-03-11 06:47:00,47.0,29.0,28.28,South,187,2.0,6.0,49,0.00,,,0.00,weatherlink.com 1.10,2013-03-11 10:47:00,
2013-03-11 07:02:00,47.1,28.0,28.27,South,185,2.0,6.0,48,0.00,,,0.00,weatherlink.com 1.10,2013-03-11 11:02:00,
2013-03-11 07:17:00,46.7,28.0,28.27,SW,218,4.0,4.0,49,0.00,,,0.00,weatherlink.com 1.10,2013-03-11 11:17:00,
2013-03-11 07:32:00,47.0,29.0,28.28,SSW,207,7.0,7.0,49,0.00,,,0.00,weatherlink.com 1.10,2013-03-11 11:32:00,
2013-03-11 07:47:00,47.4,29.0,28.28,SW,228,4.0,7.0,49,0.00,,,0.00,weatherlink.com 1.10,2013-03-11 11:47:00,
2013-03-11 08:02:00,47.6,28.0,28.28,SSW,207,5.0,12.0,47,0.00,,,0.00,weatherlink.com 1.10,2013-03-11 12:02:00,
2013-03-11 08:17:00,48.1,28.0,28.28,South,177,5.0,13.0,45,0.00,,,0.00,weatherlink.com 1.10,2013-03-11 12:17:00,
2013-03-11 08:32:00,48.1,28.0,28.28,South,176,4.0,15.0,46,0.00,,,0.00,weatherlink.com 1.10,2013-03-11 12:32:00,
2013-03-11 09:02:00,48.5,27.0,28.28,WSW,239,9.0,14.0,44,0.00,,,0.00,weatherlink.com 1.10,2013-03-11 13:02:00,
2013-03-11 09:17:00,48.7,29.0,28.28,South,181,3.0,9.0,46,0.00,,,0.00,weatherlink.com 1.10,2013-03-11 13:17:00,
2013-03-11 09:32:00,48.9,27.0,28.28,SW,214,7.0,17.0,42,0.00,,,0.00,weatherlink.com 1.10,2013-03-11 13:32:00,
2013-03-11 09:47:00,49.0,27.0,28.29,South,184,10.0,14.0,42,0.00,,,0.00,weatherlink.com 1.10,2013-03-11 13:47:00,
2013-03-11 10:02:00,49.6,27.0,28.28,SSW,201,6.0,13.0,41,0.00,,,0.00,weatherlink.com 1.10,2013-03-11 14:02:00,
2013-03-11 10:17:00,49.7,27.0,28.28,SSW,203,7.0,12.0,42,0.00,,,0.00,weatherlink.com 1.10,2013-03-11 14:17:00,
2013-03-11 10:32:00,50.1,26.0,28.28,South,177,12.0,17.0,40,0.00,,,0.00,weatherlink.com 1.10,2013-03-11 14:32:00,
2013-03-11 10:47:00,50.2,27.0,28.28,South,183,10.0,17.0,40,0.00,,,0.00,weatherlink.com 1.10,2013-03-11 14:47:00,
2013-03-11 11:02:00,50.3,28.0,28.27,SSE,152,4.0,21.0,42,0.00,,,0.00,weatherlink.com 1.10,2013-03-11 15:02:00,
2013-03-11 11:17:00,50.3,31.0,28.27,ESE,112,9.0,22.0,47,0.00,,,0.00,weatherlink.com 1.10,2013-03-11 15:17:00,
2013-03-11 11:32:00,50.8,32.0,28.26,South,189,1.0,18.0,49,0.00,,,0.00,weatherlink.com 1.10,2013-03-11 15:32:00,
2013-03-11 11:47:00,51.6,33.0,28.25,SSW,193,10.0,17.0,50,0.00,,,0.00,weatherlink.com 1.10,2013-03-11 15:47:00,
2013-03-11 12:02:00,52.4,35.0,28.24,SW,215,7.0,15.0,51,0.00,,,0.00,weatherlink.com 1.10,2013-03-11 16:02:00,
2013-03-11 12:17:00,53.2,37.0,28.24,South,176,10.0,16.0,54,0.00,,,0.00,weatherlink.com 1.10,2013-03-11 16:17:00,
2013-03-11 12:32:00,53.7,38.0,28.24,SSW,203,15.0,18.0,55,0.00,,,0.00,weatherlink.com 1.10,2013-03-11 16:32:00,
2013-03-11 12:47:00,53.4,39.0,28.24,South,190,8.0,17.0,58,0.00,,,0.00,weatherlink.com 1.10,2013-03-11 16:47:00,
2013-03-11 13:02:00,53.3,39.0,28.24,South,169,9.0,17.0,59,0.00,,,0.00,weatherlink.com 1.10,2013-03-11 17:02:00,
2013-03-11 13:17:00,53.6,39.0,28.23,South,179,6.0,17.0,59,0.00,,,0.00,weatherlink.com 1.10,2013-03-11 17:17:00,
2013-03-11 13:32:00,53.7,40.0,28.22,SSW,204,6.0,14.0,60,0.00,,,0.00,weatherlink.com 1.10,2013-03-11 17:32:00,
2013-03-11 13:47:00,54.1,40.0,28.20,SSW,198,5.0,13.0,60,0.00,,,0.00,weatherlink.com 1.10,2013-03-11 17:47:00,
2013-03-11 14:03:00,54.7,40.0,28.20,SSE,156,7.0,16.0,58,0.00,,,0.00,weatherlink.com 1.10,2013-03-11 18:03:00,
2013-03-11 14:18:00,55.1,40.0,28.20,WSW,246,7.0,13.0,57,0.00,,,0.00,weatherlink.com 1.10,2013-03-11 18:18:00,
2013-03-11 14:33:00,55.0,40.0,28.19,WSW,246,8.0,10.0,58,0.00,,,0.00,weatherlink.com 1.10,2013-03-11 18:33:00,
2013-03-11 14:48:00,54.7,40.0,28.19,SW,219,7.0,12.0,58,0.00,,,0.00,weatherlink.com 1.10,2013-03-11 18:48:00,
2013-03-11 15:03:00,54.0,39.0,28.19,SE,136,6.0,15.0,58,0.00,,,0.00,weatherlink.com 1.10,2013-03-11 19:03:00,
2013-03-11 15:18:00,53.4,40.0,28.18,SSW,211,3.0,13.0,60,0.00,,,0.00,weatherlink.com 1.10,2013-03-11 19:18:00,
2013-03-11 15:33:00,53.4,40.0,28.16,SSW,200,4.0,10.0,60,0.00,,,0.00,weatherlink.com 1.10,2013-03-11 19:33:00,
2013-03-11 16:03:00,53.0,41.0,28.15,SSW,204,4.0,9.0,63,0.00,,,0.00,weatherlink.com 1.10,2013-03-11 20:03:00,
2013-03-11 16:18:00,53.0,41.0,28.14,South,188,3.0,6.0,63,0.00,,,0.00,weatherlink.com 1.10,2013-03-11 20:18:00,
2013-03-11 17:03:00,52.8,41.0,28.16,SW,232,1.0,6.0,65,0.00,,,0.00,weatherlink.com 1.10,2013-03-11 21:03:00,
2013-03-11 17:18:00,52.6,42.0,28.16,SSW,204,4.0,9.0,67,0.00,,,0.00,weatherlink.com 1.10,2013-03-11 21:18:00,
2013-03-11 17:33:00,52.3,42.0,28.16,SSW,195,4.0,10.0,69,0.00,,,0.00,weatherlink.com 1.10,2013-03-11 21:33:00,
2013-03-11 17:48:00,52.2,43.0,28.15,South,183,5.0,7.0,70,0.00,,,0.00,weatherlink.com 1.10,2013-03-11 21:48:00,
2013-03-11 18:03:00,52.1,43.0,28.15,SSW,212,2.0,8.0,72,0.00,,,0.00,weatherlink.com 1.10,2013-03-11 22:03:00,
2013-03-11 18:18:00,51.9,43.0,28.15,South,191,1.0,6.0,72,0.00,,,0.00,weatherlink.com 1.10,2013-03-11 22:18:00,
2013-03-11 18:33:00,51.6,43.0,28.15,SSE,148,1.0,4.0,73,0.00,,,0.00,weatherlink.com 1.10,2013-03-11 22:33:00,
2013-03-11 18:48:00,51.0,43.0,28.15,SSE,156,1.0,3.0,75,0.00,,,0.00,weatherlink.com 1.10,2013-03-11 22:48:00,
2013-03-11 19:03:00,50.8,43.0,28.16,SW,222,0.0,3.0,75,0.00,,,0.00,weatherlink.com 1.10,2013-03-11 23:03:00,
2013-03-11 19:18:00,50.2,43.0,28.16,South,188,1.0,2.0,77,0.00,,,0.00,weatherlink.com 1.10,2013-03-11 23:18:00,
2013-03-11 19:33:00,48.8,43.0,28.13,SSE,165,0.0,1.0,79,0.00,,,0.00,weatherlink.com 1.10,2013-03-11 23:33:00,
2013-03-11 19:48:00,47.5,42.0,28.14,SW,226,1.0,1.0,82,0.00,,,0.00,weatherlink.com 1.10,2013-03-11 23:48:00,
2013-03-11 20:03:00,47.1,43.0,28.13,NW,318,0.0,2.0,84,0.00,,,0.00,weatherlink.com 1.10,2013-03-12 00:03:00,
2013-03-11 20:34:00,46.1,44.0,28.13,NNE,23,0.0,2.0,91,0.00,,,0.00,weatherlink.com 1.10,2013-03-12 00:34:00,
2013-03-11 20:49:00,45.8,44.0,28.12,NNE,18,3.0,3.0,92,0.00,,,0.00,weatherlink.com 1.10,2013-03-12 00:49:00,
2013-03-11 21:04:00,45.6,44.0,28.12,NNW,328,1.0,1.0,93,0.01,,,0.01,weatherlink.com 1.10,2013-03-12 01:04:00,
2013-03-11 21:34:00,45.8,45.0,28.12,SE,146,0.0,2.0,95,0.04,,,0.04,weatherlink.com 1.10,2013-03-12 01:34:00,
2013-03-11 21:49:00,46.2,45.0,28.10,NNE,12,0.0,4.0,95,0.04,,,0.04,weatherlink.com 1.10,2013-03-12 01:49:00,
2013-03-11 22:04:00,45.9,45.0,28.09,South,188,0.0,4.0,96,0.04,,,0.05,weatherlink.com 1.10,2013-03-12 02:04:00,
2013-03-11 22:19:00,48.2,47.0,28.08,South,184,2.0,9.0,97,0.03,,,0.05,weatherlink.com 1.10,2013-03-12 02:19:00,
2013-03-11 22:34:00,48.0,46.0,28.08,North,360,0.0,3.0,92,0.01,,,0.05,weatherlink.com 1.10,2013-03-12 02:34:00,
2013-03-11 22:49:00,46.9,45.0,28.07,SW,217,0.0,5.0,94,0.01,,,0.05,weatherlink.com 1.10,2013-03-12 02:49:00,
2013-03-11 22:57:00,-999.0,-99.9,0.00,North,-999,-999.0,-999.0,-999,0.00,,,0.00,weatherlink.com 1.10,2013-03-12 02:57:00,
2013-03-11 23:26:00,52.4,49.0,28.06,SSW,200,2.0,11.0,87,0.00,,,0.00,weatherlink.com 1.10,2013-03-12 03:26:00,
2013-03-11 23:41:00,52.7,49.0,28.06,NW,316,1.0,12.0,87,0.01,,,0.01,weatherlink.com 1.10,2013-03-12 03:41:00,
2013-03-11 23:56:00,51.8,49.0,28.05,SSW,197,0.0,4.0,89,0.01,,,0.01,weatherlink.com 1.10,2013-03-12 03:56:00,